Regional Weather Roundup
Issued by NWS

Home | Current Version | Previous Version | Graphics & Text | Print | Product List | Glossary On
Versions: 1 2 3 4 5 6 7 8 9 10 11 12 13 14 15 16 17 18 19 20 21 22 23 24 25 26 27 28 29 30 31 32 33 34 35 36 37 38 39 40 41 42 43 44 45 46 47 48 49 50
000
ASUS43 KOAX 311710
RWRNE

WEATHER ROUNDUP FOR NEBRASKA
NATIONAL WEATHER SERVICE OMAHA NE
1200 PM CDT MON AUG 31 2015

NOTES: SATELLITE DATA IS BEING USED TO AUGMENT CLOUD COVER ABOVE
       12000 FEET.
       "FAIR" INDICATES FEW OR NO CLOUDS BELOW 12,000 FEET WITH NO
       SIGNIFICANT WEATHER AND/OR OBSTRUCTIONS TO VISIBILITY.

  * THESE STATIONS DO NOT REPORT WEATHER SUCH AS RAIN...SNOW OR FOG.

NEZ001>004-019>022-054>056-311800-
NEBRASKA PANHANDLE

CITY           SKY/WX    TMP DP  RH WIND       PRES   REMARKS
SCOTTSBLUFF    CLOUDY    81  55  40 W5        30.03R
ALLIANCE       CLOUDY    81  52  36 N6        30.02R
CHADRON        CLOUDY    74  54  49 N14       30.00R HAZE
KIMBALL        LGT RAIN  77  50  38 NW5       30.08R
SIDNEY         CLOUDY    80  51  36 N10       30.06R
$$

NEZ057>060-069>072-079>082-311800-
SOUTHWEST NEBRASKA

CITY           SKY/WX    TMP DP  RH WIND       PRES   REMARKS
NORTH PLATTE   SUNNY     79  58  48 VRB3      29.95S
IMPERIAL       SUNNY     85  54  34 NE8       29.97S
LEXINGTON      SUNNY     83  62  49 S13       29.94F
MCCOOK         SUNNY     80  59  48 SE7       29.94F
OGALLALA       MOSUNNY   85  52  32 NE7       29.97S
$$

NEZ005>010-023>029-035>040-094-311800-
NORTH CENTRAL NEBRASKA

CITY           SKY/WX    TMP DP  RH WIND       PRES   REMARKS
VALENTINE      MOSUNNY   87  55  33 N14       29.91R
AINSWORTH      MOSUNNY   85  53  32 NW5       29.91F
BROKEN BOW     SUNNY     81  63  54 SW9       29.95S
O`NEILL        SUNNY     81  65  57 SW13      29.92S
ORD            SUNNY     81  64  56 S10       29.93R
THEDFORD       SUNNY     86  55  34 NW3       29.96S
$$

NEZ041-046>049-061>064-073>077-083>087-311800-
SOUTH CENTRAL NEBRASKA

CITY           SKY/WX    TMP DP  RH WIND       PRES   REMARKS
GRAND ISLAND   SUNNY     80  67  64 S14       29.95F
AURORA         SUNNY     78  69  74 S12       29.96S
HASTINGS       SUNNY     79  68  69 S10       29.95F
HEBRON         SUNNY     81  67  61 SE12      29.96F
HOLDREGE       SUNNY     80  62  53 S9        29.95F
KEARNEY *      SUNNY     81  64  57 S10       29.94F
YORK           SUNNY     77  68  73 S10       29.97S
$$

NEZ011>018-030>034-042>045-311800-
NORTHEAST NEBRASKA

CITY           SKY/WX    TMP DP  RH WIND       PRES   REMARKS
NORFOLK        SUNNY     80  69  69 S14       29.93S
ALBION         SUNNY     77  67  70 S12       29.95R
BLAIR          SUNNY     79  69  70 S9        29.97S
COLUMBUS *     MOSUNNY   79  66  65 S13       29.95S
FREMONT        SUNNY     80  71  72 S8        29.96F
TEKAMAH        SUNNY     81  71  71 S10       29.95F
WAYNE          MOSUNNY   79  71  74 S15       29.93F
$$

NEZ050>053-065>068-078-088>093-311800-
SOUTHEAST NEBRASKA

CITY           SKY/WX    TMP DP  RH WIND       PRES   REMARKS
LINCOLN        MOSUNNY   82  69  64 S13       29.96F
OMAHA EPPLEY   MOSUNNY   80  70  71 S8        29.97S
BEATRICE       MOSUNNY   80  69  69 S9        29.97F
FALLS CITY     PTSUNNY   84  71  65 S9        29.98S
NEBRASKA CITY  MOSUNNY   80  68  65 S9        29.98F
PLATTSMOUTH    MOSUNNY   79  69  72 SE5       29.98F
$$

NEZ044-045-051>053-067-311800-
OMAHA AREA

CITY           SKY/WX    TMP DP  RH WIND       PRES   REMARKS
OMAHA EPPLEY   MOSUNNY   80  70  71 S8        29.97S
BLAIR          SUNNY     79  69  70 S9        29.97S
FREMONT        SUNNY     80  71  72 S8        29.96F
MILLARD        MOSUNNY   81  71  71 S10       29.96S
OFFUTT AFB     SUNNY     80  71  74 SE10      29.96F
PLATTSMOUTH    MOSUNNY   79  69  72 SE5       29.98F
WAHOO          FAIR      81  70  70 S9        29.96F
$$




USA.gov is the U.S. government's official web portal to all federal, state and local government web resources and services.